Location: Avully
(45.9633°N, 6.0228°E)
Time: 14:30:13
(UTC+00:00)

Cosmos 1850 Rocket - Pass Details

Date: 23 May 2024
Orbit: 753 x 782 km, 74.0° (Epoch: 18 June)

Event Time Altitude Azimuth Distance (km) Brightness Sun altitude
Exits shadow 01:46:18 29° 212° (SSW) 1,404 4.8 -16.8°
Maximum altitude 01:49:05 75° 292° (WNW) 806 4.0 -16.6°
Drops below altitude 10° 01:54:22 10° 19° (NNE) 2,321 7.7 -16.1°
Sets 01:56:45 0° 21° (NNE) 3,247 8.8 -15.8°
